STARLINK-11561 [DTC] (62908 NORAD) Tracking and Keplerian Element Data

This shows tracking and keplerian element data for the satellite.

Feedback or suggestion? Click here.




ElementValue
Catalog62908
NameSTARLINK-11561 [DTC]
Epoch Orbit5057
Epoch Day353.69310386
Epoch Year2025
RAAN109.5988
Inclination43.0018
Eccentricity0.0002763
Argument of Perigee283.1049
Mean Anonmoly76.951
Mean Motion15.70888654
Decay Rate0.0013755
L11 62908U 25027B 25353.69310386 .00137550 00000+0 10556-2 0 9994
L22 62908 43.0018 109.5988 0002763 283.1049 76.9510 15.70888654 50575



Live tracking and technical data element details for STARLINK-11561 [DTC] (NORAD 62908). STARLINK-11561 [DTC] can be tracked NOW for your location showing map with azimuth and elevation plus other details from your city location.







IsCatalogInMostPopularTable: catalog: 62908, numindb: 2
Update: records affected: 1



GetName: 62908 STARLINK-11561 [DTC]

Hit Count: updated at: Mon, 09 Feb 2026 08:48:42 GMT